Mather AFB, CA

3:00 AM PDT on September 26, 2017 (GMT -0700)
Mather

Weather History for KMHR - December, 2012

Change the Weather History Date:

Friday, December 21, 2012

  Actual Average Record
Temperature  
Mean Temperature 44 °F -  
Max Temperature 50 °F 50 °F 62 °F (2014)
Min Temperature 39 °F 36 °F 24 °F (2011)
Degree Days  
Heating Degree Days 20    
Moisture  
Dew Point 33 °F    
Average Humidity 65    
Maximum Humidity 87    
Minimum Humidity 46    
Precipitation  
Precipitation 0.00 in - - ()
Sea Level Pressure  
Sea Level Pressure 29.95 in    
Wind  
Wind Speed 13 mph (SE)    
Max Wind Speed 18 mph    
Max Gust Speed 23 mph    
Visibility 8 miles    
Events Rain    
Averages and records for this station are not official NWS values.
T = Trace of Precipitation, MM = Missing Value Source: NWS Daily Summary

Daily Weather History Graph

Daily Weather History Graph

Search for Another Location

Airport or City:

Trip Planner

Search our weather history database for the weather conditions in past years. The results will help you decide how hot, cold, wet, or windy it might be!

Date:

Astronomy

Dec. 21, 2012 Rise Set
Actual Time 7:19 AM PST 4:47 PM PST
Civil Twilight 6:49 AM PST 5:17 PM PST
Nautical Twilight 6:16 AM PST 5:51 PM PST
Astronomical Twilight 5:43 AM PST 6:23 PM PST
Moon 12:34 PM PST (12/21) 1:14 AM PST (12/21)
Length of Visible Light 10h 28m
Length of Day
9h 28m
Waxing Gibbous, 66% of the Moon is Illuminated
Dec 21
Waxing Gibbous
Dec 28
Full
Jan 4
Last Quarter
Jan 11
New
Jan 18
First Quarter

Hourly Weather History & Observations

Time (PST) Temp. Windchill Dew Point Humidity Pressure Visibility Wind Dir Wind Speed Gust Speed Precip Events Conditions
12:46 AM 39.2 °F 32.5 °F 28.4 °F 65% 30.01 in 10.0 mi SSE 10.4 mph - N/A   Partly Cloudy
1:46 AM 39.2 °F 31.6 °F 26.6 °F 61% 30.00 in 10.0 mi SSE 12.7 mph - N/A   Partly Cloudy
2:46 AM 39.2 °F 32.0 °F 28.4 °F 65% 29.99 in 10.0 mi SSE 11.5 mph - N/A   Scattered Clouds
3:46 AM 42.8 °F 35.8 °F 30.2 °F 61% 29.97 in 10.0 mi SSE 13.8 mph - N/A   Scattered Clouds
4:46 AM 41.0 °F 34.3 °F 28.4 °F 61% 29.96 in 10.0 mi SSE 11.5 mph - N/A   Scattered Clouds
5:46 AM 41.0 °F 34.7 °F 28.4 °F 61% 29.95 in 10.0 mi SSE 10.4 mph - N/A   Scattered Clouds
6:45 AM 42.8 °F 35.1 °F 28.4 °F 57% 29.96 in 10.0 mi SE 16.1 mph - N/A   Overcast
7:45 AM 44.6 °F 37.8 °F 26.6 °F 49% 29.96 in 10.0 mi SE 15.0 mph - N/A   Mostly Cloudy
8:45 AM 46.4 °F 40.1 °F 26.6 °F 46% 29.96 in 10.0 mi SE 15.0 mph 19.6 mph N/A   Mostly Cloudy
9:46 AM 46.4 °F 41.5 °F 28.4 °F 50% 29.99 in 10.0 mi SSE 10.4 mph - N/A   Overcast
10:15 AM 44.6 °F 37.8 °F 32.0 °F 61% 29.98 in 4.0 mi SE 15.0 mph 19.6 mph N/A Rain Light Rain
10:51 AM 42.8 °F 37.0 °F 33.8 °F 70% 29.99 in 4.0 mi SE 10.4 mph - N/A Rain Light Rain
11:45 AM 41.0 °F 33.5 °F 35.6 °F 81% 29.98 in 4.0 mi SE 13.8 mph - N/A Rain Light Rain
12:45 PM 42.8 °F 35.1 °F 35.6 °F 76% 29.96 in 3.0 mi ESE 16.1 mph 21.9 mph N/A Rain Light Rain
1:57 PM 46.4 °F 39.2 °F 37.4 °F 71% 29.92 in 10.0 mi ESE 18.4 mph 23.0 mph N/A   Overcast
2:47 PM 48.2 °F - 37.4 °F 66% 29.92 in 10.0 mi ESE 15.0 mph 19.6 mph N/A   Overcast
4:45 PM 50.0 °F - 39.2 °F 66% 29.89 in 10.0 mi ESE 16.1 mph - N/A   Overcast
6:55 PM 48.2 °F - 39.2 °F 71% 29.94 in 8.0 mi SSE 12.7 mph - N/A Rain Light Rain
7:55 PM 46.4 °F 42.9 °F 42.8 °F 87% 29.93 in 7.0 mi SW 6.9 mph - N/A Rain Light Rain
10:55 PM 50.0 °F - 42.8 °F 76% 29.90 in 7.0 mi SE 16.1 mph 20.7 mph N/A Rain Light Rain
11:45 PM 50.0 °F - 41.0 °F 71% 29.88 in 9.0 mi SSE 16.1 mph 21.9 mph N/A Rain Light Rain